Location: Bun Machan
(52.1403°N, 7.3744°W)
Time: 18:02:41
(UTC+00:00)

Meteor 2-4 Rocket - Pass Details

Date: 14 July 2020
Orbit: 799 x 908 km, 81.2° (Epoch: 12 August)

Event Time Altitude Azimuth Distance (km) Brightness Sun altitude
Rises 01:54:28 0° 347° (NNW) 3,551 8.0 -14.2°
Reaches altitude 10° 01:56:57 10° 348° (NNW) 2,606 7.2 -14.1°
Maximum altitude 02:02:56 83° 76° (ENE) 919 3.9 -13.8°
Enters shadow 02:08:32 12° 166° (SSE) 2,454 5.6 -13.5°
